When you browse on this site, cookies collect data to enhance your experience and personalize the content and advertising you see.
Visit our Privacy Policy to learn more. By continuing to use the site, you agree to this use of cookies and data.
  • In Latvia
  • List of Countries
  • For 7 days
  • Water Temperature
  • Weather Map
  • Weather Widgets
  • user-avatar
    Login

    Hourly Weather San Miguel de Tucumán

    Today, 25 February, Tuesday

    Time Temperature Precipitation Wind Pressure Humidity
    00:00 +22°C° 0 mm 1 mps 715 mmHg 78%
    01:00 +22°C° 0 mm 1 mps 715 mmHg 79%
    02:00 +22°C° 0 mm 1 mps 714 mmHg 80%
    03:00 +22°C° 0 mm 1 mps 714 mmHg 80%
    04:00 +22°C° 0 mm 1 mps 715 mmHg 81%
    05:00 +21°C° 0 mm 1 mps 715 mmHg 81%
    06:00 +23°C° 0 mm 1 mps 716 mmHg 78%
    07:00 +24°C° 0 mm 2 mps 717 mmHg 75%
    08:00 +25°C° 0 mm 2 mps 718 mmHg 71%
    09:00 +27°C° 0 mm 2 mps 718 mmHg 64%
    10:00 +29°C° 0 mm 3 mps 719 mmHg 57%
    11:00 +30°C° 0 mm 3 mps 719 mmHg 50%
    12:00 +31°C° 0 mm 3 mps 719 mmHg 49%
    13:00 +31°C° 0 mm 3 mps 718 mmHg 48%
    14:00 +33°C° 0 mm 3 mps 718 mmHg 46%
    15:00 +31°C° 0 mm 2 mps 718 mmHg 51%
    16:00 +29°C° 0 mm 2 mps 717 mmHg 56%
    17:00 +28°C° 0 mm 2 mps 717 mmHg 61%
    18:00 +27°C° 0.1 mm 2 mps 718 mmHg 64%
    19:00 +26°C° 0.1 mm 2 mps 719 mmHg 67%
    20:00 +25°C° 0.1 mm 2 mps 719 mmHg 70%
    21:00 +25°C° 0 mm 1 mps 720 mmHg 70%
    22:00 +25°C° 0 mm 1 mps 721 mmHg 69%
    23:00 +25°C° 0 mm 1 mps 722 mmHg 69%

    Tomorrow, 26 February, Wednesday

    Time Temperature Precipitation Wind Pressure Humidity
    00:00 +24°C° 0 mm 1 mps 722 mmHg 70%
    01:00 +24°C° 0 mm 1 mps 722 mmHg 71%
    02:00 +23°C° 0 mm 1 mps 722 mmHg 72%
    03:00 +23°C° 0 mm 1 mps 722 mmHg 73%
    04:00 +22°C° 0 mm 1 mps 721 mmHg 74%
    05:00 +22°C° 0 mm 1 mps 721 mmHg 75%
    06:00 +23°C° 0 mm 1 mps 722 mmHg 72%
    07:00 +25°C° 0 mm 1 mps 722 mmHg 69%
    08:00 +26°C° 0 mm 1 mps 723 mmHg 65%
    09:00 +28°C° 0 mm 1 mps 723 mmHg 57%
    10:00 +30°C° 0 mm 2 mps 723 mmHg 49%
    11:00 +32°C° 0 mm 2 mps 723 mmHg 41%
    12:00 +34°C° 0 mm 2 mps 722 mmHg 40%
    13:00 +34°C° 0 mm 2 mps 722 mmHg 39%
    14:00 +35°C° 0 mm 2 mps 721 mmHg 38%
    15:00 +34°C° 0 mm 2 mps 720 mmHg 39%
    16:00 +34°C° 0 mm 2 mps 719 mmHg 41%
    17:00 +32°C° 0 mm 2 mps 719 mmHg 42%
    18:00 +30°C° 0 mm 2 mps 719 mmHg 46%
    19:00 +28°C° 0 mm 2 mps 719 mmHg 50%
    20:00 +26°C° 0 mm 2 mps 719 mmHg 54%
    21:00 +25°C° 0 mm 1 mps 719 mmHg 55%
    22:00 +25°C° 0 mm 1 mps 720 mmHg 56%
    23:00 +24°C° 0 mm 1 mps 721 mmHg 57%

    Day after tomorrow, 27 February, Thursday

    Time Temperature Precipitation Wind Pressure Humidity
    00:00 +23°C° 0 mm 1 mps 720 mmHg 58%
    01:00 +23°C° 0 mm 1 mps 720 mmHg 59%
    02:00 +22°C° 0 mm 1 mps 720 mmHg 60%
    03:00 +22°C° 0 mm 1 mps 719 mmHg 62%
    04:00 +22°C° 0 mm 1 mps 719 mmHg 64%
    05:00 +21°C° 0 mm 1 mps 719 mmHg 66%
    06:00 +22°C° 0 mm 1 mps 720 mmHg 63%
    07:00 +24°C° 0 mm 1 mps 720 mmHg 60%
    08:00 +25°C° 0 mm 1 mps 720 mmHg 58%
    09:00 +27°C° 0 mm 1 mps 720 mmHg 52%
    10:00 +29°C° 0 mm 1 mps 720 mmHg 46%
    11:00 +31°C° 0 mm 2 mps 720 mmHg 40%
    12:00 +32°C° 0 mm 2 mps 720 mmHg 39%
    13:00 +34°C° 0 mm 2 mps 720 mmHg 37%
    14:00 +35°C° 0 mm 2 mps 719 mmHg 35%
    15:00 +35°C° 0 mm 2 mps 718 mmHg 37%
    16:00 +35°C° 0 mm 2 mps 718 mmHg 38%
    17:00 +34°C° 0 mm 2 mps 717 mmHg 40%
    18:00 +31°C° 0 mm 2 mps 718 mmHg 45%
    19:00 +29°C° 0 mm 2 mps 718 mmHg 50%
    20:00 +27°C° 0 mm 2 mps 718 mmHg 55%
    21:00 +27°C° 0 mm 1 mps 718 mmHg 56%
    22:00 +26°C° 0 mm 1 mps 719 mmHg 57%
    23:00 +25°C° 0 mm 1 mps 719 mmHg 59%

    28 February, Friday

    Time Temperature Precipitation Wind Pressure Humidity
    00:00 +25°C° 0 mm 1 mps 719 mmHg 59%
    01:00 +24°C° 0 mm 1 mps 719 mmHg 60%
    02:00 +23°C° 0 mm 1 mps 719 mmHg 60%
    03:00 +23°C° 0 mm 1 mps 719 mmHg 62%
    04:00 +22°C° 0 mm 1 mps 719 mmHg 65%
    05:00 +22°C° 0 mm 1 mps 719 mmHg 67%
    06:00 +23°C° 0 mm 1 mps 719 mmHg 64%
    07:00 +25°C° 0 mm 1 mps 720 mmHg 61%
    08:00 +26°C° 0 mm 1 mps 720 mmHg 58%
    09:00 +28°C° 0 mm 1 mps 720 mmHg 52%
    10:00 +30°C° 0 mm 1 mps 720 mmHg 45%
    11:00 +32°C° 0 mm 1 mps 720 mmHg 39%
    12:00 +34°C° 0 mm 2 mps 720 mmHg 37%
    13:00 +35°C° 0 mm 2 mps 719 mmHg 35%
    14:00 +36°C° 0 mm 2 mps 719 mmHg 32%
    15:00 +36°C° 0 mm 2 mps 719 mmHg 33%
    16:00 +36°C° 0 mm 2 mps 718 mmHg 35%
    17:00 +35°C° 0 mm 2 mps 718 mmHg 36%
    18:00 +32°C° 0 mm 2 mps 718 mmHg 41%
    19:00 +30°C° 0 mm 1 mps 719 mmHg 46%
    20:00 +27°C° 0 mm 1 mps 719 mmHg 51%
    21:00 +27°C° 0.1 mm 1 mps 720 mmHg 53%
    22:00 +27°C° 0.1 mm 1 mps 720 mmHg 55%
    23:00 +26°C° 0.1 mm 1 mps 721 mmHg 57%

    29 February, Saturday

    Time Temperature Precipitation Wind Pressure Humidity
    00:00 +26°C° 0 mm 1 mps 721 mmHg 58%
    01:00 +25°C° 0 mm 1 mps 721 mmHg 59%
    02:00 +25°C° 0 mm 1 mps 721 mmHg 60%
    03:00 +24°C° 0 mm 1 mps 721 mmHg 62%
    04:00 +24°C° 0 mm 1 mps 722 mmHg 65%
    05:00 +23°C° 0 mm 1 mps 722 mmHg 67%
    06:00 +24°C° 0 mm 1 mps 723 mmHg 65%
    07:00 +26°C° 0 mm 1 mps 723 mmHg 63%
    08:00 +25°C° 0 mm 0 mps 724 mmHg 61%
    09:00 +29°C° 0 mm 1 mps 724 mmHg 54%
    10:00 +31°C° 0 mm 1 mps 724 mmHg 47%
    11:00 +33°C° 0 mm 1 mps 724 mmHg 40%
    12:00 +34°C° 0.1 mm 1 mps 724 mmHg 38%
    13:00 +36°C° 0.1 mm 2 mps 723 mmHg 36%
    14:00 +36°C° 0.1 mm 2 mps 723 mmHg 34%
    15:00 +36°C° 0.2 mm 2 mps 723 mmHg 35%
    16:00 +34°C° 0.2 mm 1 mps 722 mmHg 37%
    17:00 +34°C° 0.2 mm 1 mps 722 mmHg 39%
    18:00 +32°C° 0 mm 1 mps 722 mmHg 44%
    19:00 +29°C° 0 mm 1 mps 722 mmHg 49%
    20:00 +27°C° 0 mm 1 mps 722 mmHg 54%
    21:00 +27°C° 0 mm 1 mps 723 mmHg 53%
    22:00 +27°C° 0 mm 1 mps 723 mmHg 52%
    23:00 +26°C° 0 mm 1 mps 724 mmHg 51%

    1 March, Sunday

    Time Temperature Precipitation Wind Pressure Humidity
    00:00 +26°C° 0 mm 1 mps 724 mmHg 50%
    01:00 +26°C° 0 mm 1 mps 724 mmHg 49%
    02:00 +26°C° 0 mm 1 mps 724 mmHg 48%
    03:00 +25°C° 0 mm 1 mps 723 mmHg 50%
    04:00 +25°C° 0 mm 1 mps 723 mmHg 52%
    05:00 +24°C° 0 mm 1 mps 723 mmHg 54%
    06:00 +25°C° 0 mm 1 mps 723 mmHg 54%
    07:00 +26°C° 0 mm 1 mps 724 mmHg 54%
    08:00 +27°C° 0 mm 1 mps 724 mmHg 54%
    09:00 +30°C° 0 mm 1 mps 724 mmHg 48%
    10:00 +32°C° 0 mm 1 mps 724 mmHg 41%
    11:00 +35°C° 0 mm 2 mps 724 mmHg 35%
    12:00 +36°C° 0 mm 2 mps 723 mmHg 32%
    13:00 +37°C° 0 mm 2 mps 723 mmHg 30%
    14:00 +38°C° 0 mm 3 mps 722 mmHg 27%
    15:00 +37°C° 0 mm 3 mps 721 mmHg 29%
    16:00 +36°C° 0 mm 3 mps 720 mmHg 31%
    17:00 +36°C° 0 mm 2 mps 720 mmHg 33%
    18:00 +34°C° 0 mm 2 mps 720 mmHg 38%
    19:00 +31°C° 0 mm 2 mps 720 mmHg 42%
    20:00 +28°C° 0 mm 2 mps 720 mmHg 46%
    21:00 +28°C° 0 mm 2 mps 720 mmHg 47%
    22:00 +28°C° 0 mm 2 mps 721 mmHg 47%
    23:00 +28°C° 0 mm 2 mps 721 mmHg 48%
    Show more